Theta_e
289 289 289 289 288 288 287 286 286 286 286 286 286 286 286 286 285 284 284 284 283 283 282 282 282 282 282 281 281 280 280 280 280 279 280 280 279 279 279 279 279 279
288 287 288 287 287 287 287 287 286 286 286 286 287 286 286 286 285 285 284 283 283 283 282 282 282 282 281 281 280 280 279 279 279 280 279 279 279 279 279 278 279 278
286 286 286 286 287 286 286 285 285 286 286 286 285 285 285 285 285 284 284 284 283 282 282 282 282 282 281 281 280 280 280 279 279 279 279 279 278 279 278 278 278 278
286 286 286 286 286 285 285 284 284 284 284 284 285 285 285 285 284 284 284 284 283 282 282 281 281 281 281 280 280 280 279 279 279 278 278 278 278 278 278 278 278 278
286 286 286 286 286 285 284 284 284 284 284 285 284 284 284 284 283 283 283 283 283 282 281 281 281 281 280 280 280 279 279 279 278 278 278 277 277 278 277 277 277 277
286 287 287 287 286 285 284 284 285 284 284 283 284 284 283 283 283 283 283 283 282 282 281 281 280 280 280 280 280 279 279 278 278 277 277 277 277 277 277 277 277 276
286 286 286 286 284 284 284 284 284 284 284 284 283 283 283 283 283 283 283 283 282 282 281 280 280 280 280 279 279 279 278 278 277 277 277 277 276 276 276 276 276 276
285 284 284 283 284 284 284 284 283 283 283 282 283 283 283 283 283 283 283 282 282 281 281 280 280 280 279 279 279 279 278 278 277 277 277 276 276 276 276 276 276 276
284 285 284 284 284 285 285 285 285 284 283 283 283 282 282 283 283 282 282 282 282 281 281 280 280 280 279 279 279 279 278 277 277 277 277 276 276 276 276 276 275 275
284 285 284 284 284 285 285 285 285 285 284 283 283 283 282 282 283 282 282 282 281 281 280 280 280 280 279 279 279 279 278 277 277 277 277 277 276 276 276 275 275 275
284 284 284 284 285 285 285 286 285 285 284 283 283 282 282 282 282 282 282 281 281 281 280 280 280 280 279 279 279 279 278 278 277 277 277 277 277 277 277 276 275 275
284 284 284 285 285 285 285 286 285 285 284 283 283 282 282 282 282 282 282 281 281 281 281 280 280 280 279 279 279 278 278 278 277 277 277 277 277 276 276 276 275 275
284 284 285 285 285 285 285 285 285 285 284 283 283 283 282 282 282 282 282 282 282 282 281 280 280 280 279 279 278 278 278 277 277 277 277 277 276 276 276 275 275 275
285 285 285 285 285 285 285 284 284 284 284 284 283 282 282 282 282 282 282 282 281 281 281 281 280 279 279 279 278 278 278 277 277 277 276 276 276 275 275 275 275 274
285 285 285 285 285 284 284 284 284 284 284 283 282 282 283 282 282 282 281 281 281 281 280 280 280 279 279 279 278 278 278 277 277 276 276 275 275 274 274 274 274 274
285 284 285 285 284 284 284 284 284 284 283 283 282 282 282 282 281 281 281 281 280 280 280 280 280 280 281 282 282 278 278 277 277 276 276 275 274 273 273 273 273 273
284 284 284 284 284 285 285 284 284 283 283 282 281 281 281 280 280 280 280 281 280 280 279 279 279 280 283 284 284 284 279 277 276 276 275 275 274 273 272 272 272 272
284 283 283 283 283 283 284 284 284 283 282 281 281 280 280 280 280 280 280 280 280 280 279 279 279 282 284 285 285 285 282 278 277 276 275 275 274 273 273 272 272 271
283 283 282 282 282 282 282 282 282 282 281 281 280 281 280 279 280 280 279 280 280 279 279 279 279 283 284 285 285 285 284 280 277 276 275 274 274 273 273 272 272 271
283 282 281 281 281 281 280 280 280 280 281 281 280 279 279 279 279 279 279 279 279 279 279 279 279 282 284 285 285 286 285 282 276 276 275 274 273 273 273 272 271 271
282 281 281 280 280 279 278 278 279 279 280 280 279 279 279 279 279 279 279 279 279 279 279 279 279 282 284 285 286 286 286 283 276 275 274 274 273 273 273 272 272 272
282 281 281 281 280 279 277 278 278 278 279 279 279 279 279 279 279 279 279 279 279 279 278 278 278 283 284 285 286 286 286 280 276 275 274 273 272 273 272 272 272 272
282 281 280 280 280 279 278 278 279 278 278 277 277 278 279 278 278 279 279 279 278 278 278 278 277 281 284 285 285 286 285 277 275 274 273 272 272 272 272 273 273 273
282 281 280 280 279 279 279 279 278 278 278 277 277 277 277 277 278 278 278 278 277 277 277 277 276 279 284 285 286 286 283 275 274 273 272 272 272 272 273 273 273 275
282 281 281 280 279 279 278 277 277 277 277 276 276 277 277 277 276 277 276 277 277 277 279 278 276 278 283 284 285 286 282 274 274 273 272 271 271 271 273 273 273 275
282 281 281 280 280 279 278 277 277 275 275 275 275 276 276 276 276 276 276 276 276 276 276 277 276 276 281 285 285 286 283 275 274 273 271 271 272 272 272 272 273 274
Wind_Speed
12 10 11 10 11 10 10 11 11 12 12 11 13 13 14 12 11 14 14 12 13 13 12 12 11 10 10 9 9 8 7 7 6 5 6 6 5 7 8 8 7 7
11 10 9 8 8 9 10 11 12 13 13 13 12 11 10 11 12 13 13 13 12 13 12 12 12 12 11 10 10 10 8 8 8 5 7 8 6 7 7 7 7 5
7 7 8 9 10 8 8 7 8 9 10 10 8 9 10 10 11 12 12 13 13 12 12 12 12 12 12 11 11 10 10 10 9 7 8 9 7 8 6 7 6 8
10 10 10 9 8 8 7 7 7 7 7 8 11 8 8 9 10 12 12 13 12 12 12 12 13 12 12 12 11 10 10 10 9 8 8 6 6 7 7 7 6 6
13 12 11 11 9 7 8 9 10 10 10 9 6 9 10 10 11 12 12 13 12 12 12 13 12 12 12 11 12 11 10 10 9 10 9 9 8 8 8 8 9 9
10 11 11 11 10 9 9 11 12 10 9 8 11 8 10 11 12 14 14 14 13 13 13 13 13 12 13 12 12 11 11 10 10 11 11 11 9 8 8 9 9 10
9 8 9 6 6 7 9 8 7 9 10 10 7 11 11 12 13 14 14 14 14 14 15 14 14 14 12 12 12 12 11 11 11 12 13 10 9 9 8 9 10 10
8 6 5 5 7 7 9 8 8 9 9 7 12 10 11 13 13 12 12 14 14 14 14 14 14 14 14 13 14 14 13 10 12 13 13 12 11 11 10 9 9 10
8 9 7 7 9 10 11 12 12 12 10 13 13 11 11 12 13 12 13 13 13 13 14 14 15 15 14 14 15 16 16 14 13 15 15 14 14 13 12 11 11 10
9 9 8 9 10 11 12 13 12 11 10 12 12 10 12 12 12 14 13 14 15 14 15 15 15 15 15 15 16 16 16 16 14 14 14 14 15 14 14 13 14 12
10 8 9 11 12 12 14 14 12 12 10 12 10 11 11 11 11 12 14 15 16 17 17 16 16 15 15 15 14 14 15 15 15 15 15 15 15 15 14 16 15 15
10 8 11 13 14 15 16 14 12 11 11 10 11 13 11 12 14 13 14 15 16 16 16 16 15 15 16 17 16 14 14 14 14 15 15 15 14 14 14 14 15 14
9 11 12 13 14 15 13 11 12 12 12 13 12 13 14 14 13 14 14 15 16 15 16 16 16 16 15 15 15 15 15 15 15 15 14 13 13 13 13 13 13 13
12 11 11 13 12 12 12 12 11 11 13 12 11 14 14 15 15 16 14 12 14 14 14 13 15 15 15 15 16 16 16 16 16 16 15 14 12 12 12 12 12 12
11 10 10 11 12 11 11 11 12 12 11 11 12 13 13 14 14 13 13 13 13 14 14 13 14 15 15 16 16 17 16 17 16 16 15 15 14 13 12 12 11 11
8 9 10 11 10 11 11 11 11 11 10 11 13 13 11 11 11 12 14 15 15 15 14 13 14 13 14 21 19 17 17 14 13 13 14 14 14 14 12 12 13 11
9 8 8 10 11 10 10 9 10 10 10 11 10 10 11 11 11 13 15 14 15 15 15 14 13 12 19 25 26 25 17 15 15 14 13 13 13 15 15 14 12 9
12 11 9 9 8 9 10 10 9 8 9 10 9 10 10 9 13 15 13 13 13 14 16 16 15 14 23 25 26 25 20 15 13 13 13 14 13 14 12 12 13 9
13 12 11 10 8 8 8 7 7 8 9 8 11 11 9 12 14 12 14 14 14 16 16 15 14 16 23 25 25 26 25 19 12 13 14 14 14 14 14 13 11 9
13 12 12 12 10 8 7 7 7 9 9 8 7 6 10 11 11 13 12 13 14 14 13 12 13 15 24 25 25 26 25 21 12 13 13 13 13 14 13 14 10 10
13 12 12 11 10 8 7 7 8 8 7 7 7 10 11 12 12 13 12 12 12 11 12 12 11 16 22 24 24 25 25 20 11 11 10 10 11 13 12 8 10 9
15 15 14 12 11 10 8 8 7 7 8 6 6 7 7 7 8 9 11 12 12 11 11 12 9 18 22 23 25 24 25 14 12 12 11 11 11 11 8 7 7 10
14 14 14 13 11 10 10 9 9 8 7 4 6 7 8 9 10 10 10 11 11 12 12 11 9 16 23 24 25 26 19 11 11 10 9 10 11 13 10 10 10 12
13 13 14 13 11 11 11 10 8 6 6 5 7 8 9 10 8 8 8 8 11 12 12 12 10 15 24 25 26 28 19 13 12 11 11 10 10 11 8 7 10 21
12 12 12 13 12 11 9 9 9 8 7 4 7 7 9 7 6 8 8 7 9 10 11 13 10 13 24 25 27 28 19 12 13 12 12 11 11 11 9 7 10 15
11 12 12 12 13 12 10 9 7 6 6 6 7 7 7 7 7 7 9 8 7 9 10 11 11 10 17 26 26 28 25 14 12 13 14 13 12 12 12 11 9 12
Wind_Direction
203 201 202 197 200 196 185 187 190 190 193 191 196 198 196 194 175 188 191 186 189 185 184 183 181 181 181 177 175 172 181 187 183 180 184 176 177 169 174 172 171 174
213 206 205 200 199 198 197 191 190 192 194 195 199 190 190 181 189 183 187 187 185 191 185 182 183 182 179 178 175 174 176 178 185 173 178 181 181 174 179 171 170 160
226 220 216 212 209 205 199 193 193 199 198 201 190 187 188 184 180 186 186 186 186 187 186 185 182 184 181 179 175 178 179 177 183 174 176 187 172 179 175 166 167 174
220 217 216 217 211 206 194 185 197 197 195 188 198 187 177 182 180 181 186 186 187 188 186 183 185 181 181 179 175 183 181 182 178 164 174 172 177 171 170 167 163 164
211 213 213 213 211 194 184 195 199 199 199 198 172 179 180 178 179 184 186 189 188 187 184 186 182 183 179 179 180 180 179 179 170 169 174 179 180 173 172 166 169 172
223 218 217 214 209 200 200 201 200 195 195 190 197 178 187 179 184 186 187 187 190 187 185 184 184 184 181 181 180 185 179 178 177 171 177 181 177 178 170 174 169 174
243 231 231 223 217 214 216 216 208 202 200 199 167 194 181 187 189 189 189 190 187 190 187 186 185 183 183 179 183 184 183 182 174 178 180 181 171 176 176 172 175 177
284 286 267 234 224 216 219 214 210 209 203 182 200 196 185 192 191 189 190 189 190 192 190 188 187 186 183 182 185 184 184 181 181 180 182 179 175 182 178 178 175 177
244 244 237 234 229 228 225 219 215 209 194 199 202 193 191 190 190 188 190 190 193 192 190 190 190 190 187 185 189 186 184 186 184 183 183 180 183 184 179 176 176 182
242 242 239 238 236 235 233 227 220 215 204 208 205 192 194 197 189 188 186 190 193 192 192 193 192 192 189 192 190 188 188 187 183 187 188 187 185 182 179 180 182 179
255 244 241 239 237 237 236 233 225 221 210 212 201 200 198 190 196 192 192 191 193 193 194 195 194 190 190 192 194 192 190 186 186 188 190 190 189 186 182 181 182 187
261 251 243 241 238 239 238 234 227 222 215 211 203 206 197 198 197 195 196 197 197 196 194 195 191 191 193 192 191 189 190 191 189 190 192 190 189 188 185 184 184 183
252 245 241 241 239 239 239 235 228 221 213 213 203 205 201 200 200 199 201 198 199 196 197 193 191 193 193 191 191 190 191 191 190 192 191 190 191 188 185 186 185 181
276 264 254 247 245 243 238 233 229 223 219 214 202 208 207 203 200 201 201 199 201 199 199 194 193 193 193 192 192 191 190 193 191 190 189 188 186 186 185 185 183 180
273 270 263 258 250 246 241 234 228 224 221 214 209 212 209 207 202 198 196 200 201 199 197 195 197 198 195 192 191 192 193 193 192 191 188 185 182 183 182 180 180 180
280 271 267 264 261 252 244 237 230 224 218 216 216 214 213 207 201 200 201 201 199 200 198 197 202 203 195 191 188 189 190 191 189 191 189 186 182 179 179 181 180 176
321 298 280 270 263 258 255 246 235 226 219 219 217 210 209 206 201 204 207 204 201 198 199 203 206 204 194 193 193 188 184 186 185 187 187 187 186 182 181 177 176 160
331 324 308 288 277 266 258 250 244 235 227 218 214 210 208 201 207 210 207 204 204 202 204 205 206 200 196 196 194 190 184 183 184 183 184 187 187 186 182 174 170 151
331 329 321 310 292 276 271 263 250 241 235 224 218 213 200 207 213 205 209 207 204 206 209 206 209 197 196 195 193 191 186 180 186 184 184 189 186 185 178 175 168 147
328 326 322 316 309 296 279 265 249 240 235 227 224 208 210 215 213 212 212 208 210 212 212 209 209 198 196 194 193 190 187 181 185 183 187 188 186 183 179 176 164 151
327 325 319 316 313 306 292 270 255 253 243 228 216 214 213 214 211 213 213 211 211 210 212 212 210 196 197 194 193 190 189 180 180 181 182 184 182 183 182 157 154 152
328 325 322 318 316 312 300 280 265 251 248 236 225 229 228 226 226 219 215 212 210 206 209 212 203 195 196 194 192 190 186 178 179 180 181 179 179 164 134 147 148 155
323 320 316 314 313 310 298 285 274 261 252 236 232 230 224 221 222 216 214 211 207 205 206 208 198 195 195 193 192 189 182 174 174 176 178 176 180 176 166 160 162 163
318 316 314 310 309 304 294 286 276 268 254 217 223 229 228 228 220 222 217 210 208 207 204 202 200 195 194 193 190 189 178 168 170 174 178 176 175 176 168 161 164 175
316 316 313 309 304 297 290 282 273 261 253 222 224 226 232 227 215 220 219 212 212 208 202 203 199 196 197 195 192 190 178 168 170 176 175 179 173 171 171 150 171 183
314 314 311 308 302 296 291 274 267 266 248 231 233 221 223 212 216 217 215 216 204 202 205 203 196 196 200 197 194 193 182 168 173 176 183 177 172 170 168 173 172 177